Regional Weather Roundup
Issued by NWS

Home | Current Version | Previous Version | Graphics & Text | Print | Product List | Glossary On
Versions: 1 2 3 4 5 6 7 8 9 10 11 12 13 14 15 16 17 18 19 20 21 22 23 24 25 26 27 28 29 30 31 32 33 34 35 36 37 38 39 40 41 42 43 44 45 46 47 48 49 50
634
ASUS45 KPSR 281910
RWRAZ

ARIZONA HOURLY REGIONAL WEATHER ROUNDUP
NATIONAL WEATHER SERVICE PHOENIX AZ
1200 PM MST SAT MAY 28 2016

NOTE: FAIR INDICATES FEW OR NO CLOUDS BELOW 12,000 FEET WITH NO
SIGNIFICANT WEATHER AND/OR OBSTRUCTIONS TO VISIBILITY.

AZZ001>003-036-282000-
NORTHWEST ARIZONA

CITY           SKY/WX    TMP DP  RH WIND       PRES   REMARKS
BULLHEAD CITY  MOSUNNY   93  34  12 S9        29.80F
KINGMAN        MOSUNNY   84  29  13 SW10G21   29.93F
$$

AZZ004>008-015-016-018-282000-
NORTH CENTRAL ARIZONA

CITY           SKY/WX    TMP DP  RH WIND       PRES   REMARKS
GRAND CANYON   CLOUDY    70  25  18 E12G20    30.11F
WILLIAMS       MOSUNNY   70  27  19 S13       30.17F
PRESCOTT       MOSUNNY   77  24  14 SE13      30.02F
FLAGSTAFF      PTSUNNY   68  27  21 E8        30.13F
PAYSON         SUNNY     75  23  14 VRB5G18   30.06F
PAGE           SUNNY     79  31  17 N8        29.99F
$$

AZZ009>014-017-282000-
NORTHEAST ARIZONA

CITY           SKY/WX    TMP DP  RH WIND       PRES   REMARKS
WINSLOW        SUNNY     79  26  14 NE10      30.02F
SAINT JOHNS    SUNNY     76  23  14 NE6       30.04F
WINDOW ROCK    PTSUNNY   72  25  17 SE9       30.12F
SHOW LOW       SUNNY     70  18  13 S13       30.11F
$$

AZZ023-282000-
GREATER PHOENIX AREA

CITY           SKY/WX    TMP DP  RH WIND       PRES   REMARKS
PHOENIX        MOSUNNY   90  31  12 VRB5      29.80F
BUCKEYE        SUNNY     88  36  15 S7        29.83F
GLENDALE       SUNNY     90  34  13 CALM      29.83F
LUKE AFB       SUNNY     89  33  13 SE7       29.80F
DEER VALLEY    SUNNY     88  31  13 S8        29.82F
SCOTTSDALE     SUNNY     88  30  12 VRB3      29.84F
MESA-FALCON    SUNNY    N/A N/A N/A S7        29.80F
MESA-GATEWAY   MOSUNNY   90  30  12 SW6       29.83F
$$

AZZ027-028-282000-
SOUTHWEST MARICOPA COUNTY AND PINAL COUNTY

CITY           SKY/WX    TMP DP  RH WIND       PRES   REMARKS
CASA GRANDE    SUNNY     90  34  13 SE5       29.84F
GILA BEND      FAIR      91  29  11 VRB1      29.79F
$$

AZZ503-504-507>509-282000-
SOUTHEAST ARIZONA

CITY           SKY/WX    TMP DP  RH WIND       PRES   REMARKS
TUCSON         SUNNY     88  18   7 S8        29.89F
DAVIS-MONTHAN  MOSUNNY   87  17   7 VRB6      29.87F
RYAN FIELD     SUNNY     90  18   7 E10G17    29.88
NOGALES        SUNNY     84  15   7 E9        29.96F
SIERRA VISTA   MOSUNNY   82   5   5 SE15G26   30.01F
DOUGLAS        SUNNY     83  14   7 S14G21    29.99F
SAFFORD        SUNNY     88  21   8 S10G18    29.91F
$$

AZZ020-021-025-026-031-282000-
SOUTHWEST ARIZONA

CITY           SKY/WX    TMP DP  RH WIND       PRES   REMARKS
YUMA           SUNNY     90  35  14 SW3       29.79F
$$

CAZ031-033-041-043-047-048-061-282000-
SOUTHERN CALIFORNIA

CITY           SKY/WX    TMP DP  RH WIND       PRES   REMARKS
DOWNTOWN L.A.  CLOUDY    68  55  63 VRB3      29.90S
L.A. AIRPORT   CLOUDY    64  56  75 W8        29.91S
SAN DIEGO      CLOUDY    64  56  75 S7        29.93S
BURBANK        MOSUNNY   69  54  58 S8        29.89S
ONTARIO        PTSUNNY   68  53  58 VRB3      29.89F
RIVERSIDE      MOSUNNY   68  54  60 W6        29.90F
PALM SPRINGS   SUNNY     87  44  22 VRB5      29.81F
EL CENTRO NAS  MOSUNNY   89  46  22 E6        29.78F
IMPERIAL       SUNNY     89  49  25 VRB6G18   29.76F
BLYTHE         SUNNY     91  34  13 S10       29.79F
NEEDLES        SUNNY     94  33  11 VRB6      29.79F
$$

NVZ020-UTZ003-282000-
SOUTHERN NEVADA-UTAH

CITY           SKY/WX    TMP DP  RH WIND       PRES   REMARKS
LAS VEGAS      PTSUNNY   88  31  13 NE8       29.82F
SALT LAKE CITY MOSUNNY   69  42  37 MISG      30.03F
$$

NMZ009-TXZ055-282000-
NEW MEXICO-WEST TEXAS

CITY           SKY/WX    TMP DP  RH WIND       PRES   REMARKS
ALBUQUERQUE    MOSUNNY   76  23  14 S8        30.08F
EL PASO        SUNNY     84  15   7 E5G16     30.00F
$$


........................KEY........................
SKY/WX - SKY CONDITION/WEATHER
TMP    - TEMPERATURE IN FAHRENHEIT
DP     - DEW POINT IN FAHRENHEIT
RH     - RELATIVE HUMIDITY IN PERCENT
WIND   - DIRECTION AND SPEED IN MILES PER HOUR (MPH)
VRB    - VARIABLE WIND DIRECTION
PRES   - MEAN SEA LEVEL PRESSURE IN INCHES OF MERCURY
         F - FALLING PRESSURE   R - RISING PRESSURE
         S - STEADY PRESSURE
VSB    - VISIBILITY IN MILES
HX     - HEAT INDEX IN FAHRENHEIT
WCI    - WIND CHILL INDEX IN FAHRENHEIT
TC     - TEMPERATURE IN CELSIUS WHICH IS ALSO KNOWN AS
         TEMPERATURE IN CENTIGRADE
AFB    - AIR FORCE BASE
         LUKE AFB IS LUKE AIR FORCE BASE
         DAVIS-MONTHAN IS DAVIS-MONTHAN AIR FORCE BASE
NAS    - NAVAL AIR STATION
         EL CENTRO NAS IS EL CENTRO NAVAL AIR STATION
N/A    - NOT AVAILABLE





USA.gov is the U.S. government's official web portal to all federal, state and local government web resources and services.